Location: Red Bud (historical)
(37.7759°N, 88.4053°W)
Time: 22:07:55
(UTC+00:00)

Cosmos 1656 - Pass Details

Date: 29 October 2020
Orbit: 796 x 851 km, 71.1° (Epoch: 28 November)

Event Time Altitude Azimuth Distance (km) Brightness Sun altitude
Rises 23:16:04 0° 192° (SSW) 3,322 7.2 -4.3°
Reaches altitude 10° 23:18:28 10° 190° (S) 2,403 6.4 -4.8°
Maximum altitude 23:23:55 66° 108° (ESE) 901 3.7 -5.8°
Drops below altitude 10° 23:29:29 10° 28° (NNE) 2,454 5.7 -6.9°
Sets 23:31:58 0° 26° (NNE) 3,400 6.5 -7.4°
